Regional Weather Roundup
Issued by NWS

Home | Current Version | Previous Version | Text Only | Print | Product List | Glossary Off
Versions: 1 2 3 4 5 6 7 8 9 10 11 12 13 14 15 16 17 18 19 20 21 22 23 24 25 26 27 28 29 30 31 32 33 34 35 36 37 38 39 40 41 42 43 44 45 46 47 48 49 50

986
ASUS45 KBOU 200510
RWRCO

WEATHER ROUNDUP FOR COLORADO
NATIONAL WEATHER SERVICE DENVER/BOULDER CO
1000 PM MST FRI JAN 19 2018

NOTE: "FAIR" INDICATES FEW OR NO CLOUDS BELOW 12000 FEET WITH NO
SIGNIFICANT WEATHER AND/OR OBSTRUCTIONS TO VISIBILITY.

COZ001>005-013-030-031-200600-
...NORTHWEST COLORADO...

CITY           SKY/WX    TMP DP  RH WIND       PRES   REMARKS
CRAIG          FAIR      30  24  78 E5        29.83R WCI  25
HAYDEN         FAIR     N/A N/A N/A CALM      29.84S
MEEKER         FAIR      46  22  38 CALM      29.84R
RABBIT EARS PA FAIR      30  16  55 SW10G25   29.92F WCI  21
STEAMBOAT SPGS FAIR      28  21  72 CALM      29.84R
WALDEN         FAIR      23  14  68 SE6       29.87S WCI  16
$$

COZ006>008-011-200600-
...WEST CENTRAL VALLEYS...

CITY           SKY/WX    TMP DP  RH WIND       PRES   REMARKS
GRAND JUNCTION FAIR      35  21  56 CALM      29.85R
MONTROSE       FAIR      48  22  35 MISG      29.89F
EAGLE          FAIR      33  19  56 E10       29.89S WCI  25
RIFLE          FAIR      32  23  69 CALM      29.88R
DELTA          FAIR      48  23  37 NE10      29.88S
NUCLA          FAIR      39  23  52 E7        29.94S
$$

COZ017>023-064>068-200600-
...SOUTHWEST COLORADO...

CITY           SKY/WX    TMP DP  RH WIND       PRES   REMARKS
DURANGO        FAIR      29  17  61 CALM      30.00S
CORTEZ         FAIR      28  20  71 E7        29.95F WCI  21
PAGOSA SPRINGS FAIR      29  16  59 CALM      30.04S
TELLURIDE      CLOUDY    41  19  40 SE15G23   30.03F
WOLF CREEK PAS FAIR      23  14  68 SW17G24   30.15S WCI   9
$$

COZ009-010-012-014-032>034-037-058>063-200600-
...CENTRAL COLORADO...

CITY           SKY/WX    TMP DP  RH WIND       PRES   REMARKS
ASPEN          FAIR      33  18  53 S5        29.90F WCI  29
BUENA VISTA    FAIR      37  14  38 CALM      29.93S
COPPER MTN     NOT AVBL
BERTHOUD PASS  FAIR      27  14  59 W40G53    29.98S WCI   8
COTTONWOOD PAS   N/A     43  16  33 CALM      29.98S
GUNNISON       FAIR      21  15  78 CALM      29.99S
KREMMLING      FAIR      37  21  52 CALM      29.88R
LEADVILLE      FAIR      30   6  36 E5        29.95S WCI  25
MONARCH PASS   FAIR      27  16  63 W26G35    30.16S WCI  11
SALIDA         FAIR      44  14  29 SW8       30.01R
SUNLIGHT       MOCLDY    28  18  64 SW22G36   30.00F WCI  15
WILKERSON PASS FAIR      30  10  43 SW14G31   30.03S WCI  20
$$

COZ069>075-200600-
...SAN LUIS VALLEY/SANGRE DE CRISTO MOUNTAINS...

CITY           SKY/WX    TMP DP  RH WIND       PRES   REMARKS
ALAMOSA        FAIR      29  14  53 S10       29.98S WCI  20
DEL NORTE      FAIR      36  15  41 SW8       30.00S
LA VETA PASS   FAIR      32  18  55 S22G35      N/A  WCI  19
SAGUACHE       FAIR      25  12  58 N6        30.00R WCI  18
$$

COZ035-036-038>040-200600-
...NORTHERN COLORADO FRONT RANGE...

CITY           SKY/WX    TMP DP  RH WIND       PRES   REMARKS
DENVER INTL AP FAIR      46  15  28 S9        29.75R
DMNS CITY PARK NOT AVBL
AURORA         MOCLDY    50  15  24 S14       29.76S
FRONT RANGE AP FAIR      48  17  28 SW9       29.76S
ERIE MUNI ARPT FAIR      34  19  54 CALM      29.79F
BOULDER MUN AP FAIR      50  14  23 SW8       29.74S
CENTENNIAL     FAIR      53  15  22 SW20G26   29.77S
BROOMFIELD     PTCLDY    54  14  20 W5        29.75F
FORT COLLINS   FAIR      45  21  38 S5        29.74S
LONGMONT       FAIR      45  15  29 W3        29.76R
$$

COZ041-046-047-076>085-087-088-200600-
...PIKES PEAK/PALMER DIVIDE AND SOUTHERN FOOTHILLS...

CITY           SKY/WX    TMP DP  RH WIND       PRES   REMARKS
COLO. SPRINGS  FAIR      51  15  23 CALM      29.83S
A. F. ACADEMY  FAIR      40  11  31 N9        29.84R
SCHRIEVER AFB  FAIR      46  12  25 W13       29.83F
CHEYENNE MTN   FAIR      48  13  24 W5        29.81F
ELLICOTT         N/A    N/A N/A N/A W3        29.82S
FALCON         FAIR      44  11  26 CALM      29.86F
FORT CARSON    FAIR      53  15  22 W12       29.80F
LIMON          FAIR      25  16  68 N5        29.78F WCI  19
MONUMENT HILL  FAIR      41  14  33 E6        29.87R
CANON CITY     CLEAR     46  19  34 W7        29.81R
WALSENBURG     FAIR      48  19  32 SW14      29.88S
TRINIDAD       FAIR      49  18  29 W14       29.86R
$$

COZ042>045-048>051-090-091-200600-
...NORTHEAST COLORADO...

CITY           SKY/WX    TMP DP  RH WIND       PRES   REMARKS
GREELEY ARPT   FAIR      28  21  75 N8        29.74S WCI  20
AKRON          FAIR      47  21  35 S13       29.75R
BURLINGTON     FAIR      37  18  46 S8        29.74F
WRAY           FAIR      36  25  64 NW5       29.75S
YUMA           FAIR      30  18  59 CALM      29.75S
STERLING       FAIR      30  25  80 N5        29.75R WCI  25
HOLYOKE        FAIR      34  27  75 N3        29.76S
FORT MORGAN    FAIR      40  18  42 NE5       29.74S
$$

COZ086-089-092>099-200600-
...SOUTHEAST COLORADO...

CITY           SKY/WX    TMP DP  RH WIND       PRES   REMARKS
PUEBLO         FAIR      41  19  41 SW6       29.78R
LA JUNTA       FAIR      47  19  33 W6        29.74S
LAMAR          FAIR      33  14  45 SW5       29.73R WCI  29
SPRINGFIELD      N/A     35  16  45 SW12      29.76S WCI  27
$$




USA.gov is the U.S. government's official web portal to all federal, state and local government web resources and services.